Regional Weather Roundup
Issued by NWS State College, PA

Home | Current Version | Previous Version | Text Only | Print | Product List | Glossary On
Versions: 1 2 3 4 5 6 7 8 9 10 11 12 13 14 15 16 17 18 19 20 21 22 23 24 25 26 27 28 29 30 31 32 33 34 35 36 37 38 39 40 41 42 43 44 45 46 47 48 49 50
000
ASUS41 KCTP 251810
RWRCTP

REGIONAL WEATHER ROUNDUP
NATIONAL WEATHER SERVICE STATE COLLEGE PA
200 PM EDT FRI JUL 25 2014

Note: "fair" indicates few or no clouds below 12,000 feet with no
significant weather and/or obstructions to visibility.

* = STATION THAT DOES NOT REPORT PRECIPITATION /E.G. RAIN...SNOW...ETC/
    THUNDER OR FOG.

PAZ002>004-007>009-013>016-020>023-029>032-251900-
WESTERN PENNSYLVANIA

CITY           SKY/WX    TMP DP  RH WIND       PRES   REMARKS
ERIE           SUNNY     74  52  46 W7        30.07S
MEADVILLE      SUNNY     71  50  47 VRB5      30.08S
FRANKLIN*      SUNNY     72  48  43 CALM      30.08F
NEW CASTLE       N/A     75  49  39 CALM      30.08S
BEAVER COUNTY  SUNNY     73  48  40 W6        30.08S
BUTLER*        SUNNY     73  52  46 W5        30.09R
PITTSBURGH INT MOSUNNY   75  46  35 SE5       30.06F
PITTSBURGH     SUNNY     74  46  36 VRB5      30.05F
INDIANA*       SUNNY     73  50  43 SW8       30.09F
LATROBE        SUNNY     73  54  49 SW6       30.06F
WASHINGTON CO* SUNNY     75  54  46 W9        30.06F
$$

PAZ004>006-010>012-017>019-024>028-033>037-041-042-045-046-049>053-251900-
CENTRAL PENNSYLVANIA

CITY           SKY/WX    TMP DP  RH WIND       PRES   REMARKS
BRADFORD       SUNNY     71  46  40 NW7       30.07F
DUBOIS         SUNNY     72  48  42 SW5       30.06F
CLEARFIELD     SUNNY     73  47  39 VRB6      30.06F
JOHNSTOWN      SUNNY     70  46  42 NW6       30.07F
ALTOONA        SUNNY     74  53  48 VRB3      30.06F
STATE COLLEGE  SUNNY     72  48  43 CALM      30.06F
WILLIAMSPORT   SUNNY     76  49  38 VRB5      30.03F
SELINSGROVE    SUNNY     77  49  37 VRB3      30.04F
FT INDIANTOWN  SUNNY     78  52  39 VRB5      30.03F
CAPITAL CITY   SUNNY     77  47  34 NW8       30.03F
HARRISBURG     MOSUNNY   78  48  34 W8        30.02F
YORK           SUNNY     77  50  38 VRB6      30.03F
$$

PAZ038>040-043-044-047-048-054-055-060>062-067>071-251900-
EASTERN PENNSYLVANIA

CITY           SKY/WX    TMP DP  RH WIND       PRES   REMARKS
SCRANTON       SUNNY     77  50  38 NW3       30.04F
MOUNT POCONO   SUNNY     72  49  44 CALM      30.06F
ALLENTOWN      SUNNY     79  53  40 VRB3      30.02F
QUAKERTOWN*    CLEAR     77  55  47 N7        30.03F
READING        SUNNY     78  55  44 SW6       30.02F
LANCASTER      SUNNY     75  54  47 NW3       30.03F
COATESVILLE    CLEAR     75  55  50 W3        30.05S
POTTSTOWN      SUNNY     78  54  43 NW5       30.03F
BLUE BELL      SUNNY     81  55  41 CALM      30.01S
DOYLESTOWN     MOSUNNY   80  55  42 CALM      30.01F
WILLOW GROVE   NOT AVBL
NORTH PHILA    PTSUNNY   83  54  36 VRB3      30.02S
PHILADELPHIA   MOSUNNY   80  53  39 S8        30.01S
$$


USA.gov is the U.S. government's official web portal to all federal, state and local government web resources and services.